Home > Time Zones > World Clock > Weather > Norway > Odda > Past weeks

Flag for Norway Weather past 2 weeks in Odda, Norway

Now
46 °F

Cool.


Feels Like: 40 °F
Forecast: 49 / 68 °F
Wind: 14 mph from Southeast

Location: Midtlaeger

Current Time: Aug 31, 2014 at 2:41:16 AM

Latest Report: Aug 31, 2014 at 1:00 AM


Visibility: N/A

Pressure: 29.89 "Hg

Humidity: 84%

Dew point: 42 °F

Location of OddaLocation

Historic Weather in Odda — Graph

°F

Odda temperature yesterday

Maximum temperature yesterday: 47 °F (at 2:00 AM)
Minimum temperature yesterday: 46 °F (at 7:00 PM)
Average temperature yesterday: 46 °F

Past Weeks' High & Low Weather Summary

 TemperatureHumidityPressure
High57 °F (Aug 28, 4:00 PM)91% (Aug 20, 7:00 AM)29.98 "Hg (Aug 20, 7:00 AM)
Low38 °F (Aug 21, 6:00 AM)43% (Aug 27, 3:00 PM)29.18 "Hg (Aug 18, 8:00 AM)
Average45 °F78%29.65 "Hg
* Reported Aug 16 1:00 AM — Aug 31 1:00 AM, Odda, Weather by CustomWeather, © 2014

Note: Actual official high and low records may vary slightly from our data, if they occured in-between our weather recording intervals... More about our weather records

Advertising

Odda weather history for previous 24 hours

 ConditionsComfort  
Time TempWeatherWind HumidityBarometerVisibility
1:00 AM
Aug 31
46 °FCool.14 mph84%29.89 "HgN/A
12:00 AM46 °FCool.12 mph82%29.87 "HgN/A
11:00 PM
Aug 30
46 °FCool.13 mph84%29.86 "HgN/A
10:00 PM46 °FCool.14 mph82%29.86 "HgN/A
9:00 PM46 °FCool.14 mph81%29.84 "HgN/A
8:00 PM46 °FCool.14 mph83%29.84 "HgN/A
7:00 PM46 °FCool.14 mph85%29.84 "HgN/A
6:00 PM46 °FCool.13 mph84%29.83 "HgN/A
5:00 PM46 °FCool.13 mph85%29.85 "HgN/A
4:00 PM46 °FCool.13 mph85%29.83 "HgN/A
3:00 PM46 °FCool.14 mph85%29.83 "HgN/A
2:00 PM46 °FCool.15 mph84%29.84 "HgN/A
1:00 PM46 °FCool.14 mph84%29.83 "HgN/A
12:00 PM46 °FCool.15 mph83%29.83 "HgN/A
11:00 AM46 °FCool.14 mph85%29.82 "HgN/A
10:00 AM46 °FCool.13 mph84%29.82 "HgN/A
9:00 AM46 °FCool.10 mph87%29.83 "HgN/A
8:00 AM46 °FCool.10 mph84%29.82 "HgN/A
7:00 AM46 °FCool.9 mph83%29.84 "HgN/A
6:00 AM46 °FCool.12 mph82%29.84 "HgN/A
5:00 AM46 °FCool.10 mph82%29.85 "HgN/A
4:00 AM46 °FCool.12 mph84%29.85 "HgN/A
3:00 AM46 °FCool.12 mph82%29.85 "HgN/A
2:00 AM47 °FCool.13 mph80%29.85 "HgN/A
Weather by CustomWeather, © 2014

See weather overviewHow to use our weather pages